Weather History for Searcy, AR

Change the Weather History Date:

Sunday, May 10, 2009

  Actual Average Record
Temperature  
Mean Temperature 62 °F -  
Max Temperature 64 °F 79 °F 92 °F (1962)
Min Temperature 57 °F 53 °F 41 °F (1966)
Degree Days  
Heating Degree Days 4    
Growing Degree Days 12 (Base 50)    
Moisture  
Dew Point 56 °F    
Average Humidity 84    
Maximum Humidity 93    
Minimum Humidity 70    
Precipitation  
Precipitation 0.27 in - - ()
Sea Level Pressure  
Sea Level Pressure 30.16 in    
Wind  
Wind Speed 7 mph (NE)    
Max Wind Speed 14 mph    
Max Gust Speed -    
Visibility 7 miles    
Events Rain    
Averages and records for this station are not official NWS values.
T = Trace of Precipitation, MM = Missing Value Source: NWS Daily Summary

Daily Weather History Graph

Daily Weather History Graph

Search for Another Location

Airport:

Trip Planner

Search our weather history database for the weather conditions in past years. The results will help you decide how hot, cold, wet, or windy it might be!

Date:

Astronomy

May. 10, 2009 Rise Set
Actual Time 6:06 AM CDT 8:00 PM CDT
Civil Twilight 5:39 AM CDT 8:28 PM CDT
Nautical Twilight 5:05 AM CDT 9:02 PM CDT
Astronomical Twilight 4:29 AM CDT 9:38 PM CDT
Moon 9:55 PM CDT (5/10) 6:43 AM CDT (5/10)
Length of Visible Light 14h 49m
Length of Day
13h 53m
Full, 98% of the Moon is Illuminated
May 10
Full
May 17
Last Quarter
May 24
New
May 30
First Quarter
Jun 7
Full

Hourly Weather History & Observations

Time (CDT) Temp. Dew Point Humidity Pressure Visibility Wind Dir Wind Speed Gust Speed Precip Events Conditions
12:56 AM 64.9 °F 55.9 °F 73% 30.12 in 10.0 mi North 5.8 mph - N/A   Overcast
1:56 AM 63.9 °F 54.9 °F 72% 30.11 in 10.0 mi NNE 4.6 mph - N/A   Mostly Cloudy
2:56 AM 61.9 °F 54.9 °F 78% 30.12 in 10.0 mi NNE 6.9 mph - N/A   Clear
3:56 AM 62.6 °F 55.4 °F 77% 30.11 in 10.0 mi NE 6.9 mph - N/A   Overcast
4:56 AM 63.9 °F 54.0 °F 70% 30.13 in 10.0 mi ENE 11.5 mph - N/A   Mostly Cloudy
5:49 AM 62.6 °F 55.4 °F 77% 30.13 in 10.0 mi ENE 9.2 mph - 0.00 in Rain Light Rain
5:56 AM 61.9 °F 54.9 °F 78% 30.15 in 9.0 mi ENE 9.2 mph - 0.00 in Rain Light Rain
6:03 AM 62.6 °F 55.4 °F 77% 30.13 in 9.0 mi ENE 8.1 mph - 0.00 in Rain Light Rain
6:56 AM 60.8 °F 55.4 °F 82% 30.18 in 6.0 mi Calm Calm - N/A Rain Heavy Rain
7:03 AM 60.8 °F 55.4 °F 82% 30.18 in 2.5 mi East 3.5 mph - 0.05 in Rain Heavy Rain
7:10 AM 60.8 °F 57.2 °F 88% 30.18 in 3.0 mi ENE 4.6 mph - 0.05 in Rain Light Rain
7:18 AM 60.8 °F 55.4 °F 82% 30.18 in 3.0 mi East 3.5 mph - 0.07 in Rain Rain
7:27 AM 60.8 °F 55.4 °F 82% 30.19 in 2.5 mi East 5.8 mph - 0.09 in Rain Rain
7:36 AM 60.8 °F 55.4 °F 82% 30.21 in 6.0 mi SSW 3.5 mph - 0.09 in Rain Light Rain
7:45 AM 60.8 °F 57.2 °F 88% 30.20 in 8.0 mi ENE 6.9 mph - 0.09 in Rain Light Rain
7:56 AM 59.9 °F 54.9 °F 83% 30.19 in 10.0 mi East 12.7 mph - 0.09 in Rain Light Rain
8:09 AM 59.0 °F 55.4 °F 88% 30.16 in 10.0 mi ESE 11.5 mph - 0.01 in Rain Light Rain
8:21 AM 59.0 °F 55.4 °F 88% 30.17 in 7.0 mi ENE 10.4 mph - 0.01 in Rain Light Rain
8:56 AM 59.9 °F 55.9 °F 87% 30.19 in 10.0 mi ENE 9.2 mph - 0.02 in Rain Light Rain
9:56 AM 59.9 °F 55.9 °F 87% 30.19 in 10.0 mi East 8.1 mph - 0.00 in   Overcast
10:56 AM 61.0 °F 56.8 °F 86% 30.20 in 9.0 mi ENE 3.5 mph - 0.00 in Rain Light Rain
11:24 AM 60.8 °F 57.2 °F 88% 30.19 in 2.5 mi NE 4.6 mph - 0.04 in Rain Rain
11:28 AM 60.8 °F 57.2 °F 88% 30.19 in 1.8 mi NNE 4.6 mph - 0.05 in Rain Heavy Rain
11:41 AM 60.8 °F 57.2 °F 88% 30.19 in 2.5 mi NNE 5.8 mph - 0.06 in Rain Light Rain
11:49 AM 60.8 °F 57.2 °F 88% 30.18 in 3.0 mi NE 5.8 mph - 0.06 in Rain Light Rain
11:56 AM 59.9 °F 57.9 °F 93% 30.19 in 5.0 mi NE 6.9 mph - 0.06 in Rain Light Rain
12:56 PM 60.8 °F 57.2 °F 88% 30.18 in 10.0 mi North 10.4 mph - N/A Rain Light Rain
1:26 PM 59.0 °F 55.4 °F 88% 30.19 in 2.0 mi NNE 9.2 mph - 0.01 in Rain Rain
1:34 PM 59.0 °F 55.4 °F 88% 30.18 in 1.8 mi NE 11.5 mph - 0.03 in Rain Rain
1:36 PM 59.0 °F 55.4 °F 88% 30.18 in 2.0 mi NNE 11.5 mph - 0.03 in Rain Rain
1:49 PM 59.0 °F 55.4 °F 88% 30.17 in 4.0 mi NE 13.8 mph - 0.05 in Rain Rain
1:56 PM 59.0 °F 55.9 °F 90% 30.19 in 4.0 mi NNE 8.1 mph - 0.06 in Rain Rain
2:56 PM 59.9 °F 56.8 °F 90% 30.17 in 10.0 mi ENE 8.1 mph - 0.02 in   Overcast
3:56 PM 59.9 °F 56.8 °F 90% 30.15 in 10.0 mi ENE 5.8 mph - 0.00 in   Mostly Cloudy
4:56 PM 59.9 °F 55.9 °F 87% 30.11 in 10.0 mi ENE 9.2 mph - N/A   Overcast
5:56 PM 59.9 °F 55.9 °F 87% 30.09 in 10.0 mi NE 10.4 mph - N/A   Overcast
6:56 PM 61.0 °F 55.9 °F 83% 30.09 in 10.0 mi NE 9.2 mph - N/A   Overcast
7:56 PM 61.0 °F 55.9 °F 83% 30.10 in 10.0 mi NNE 11.5 mph - N/A   Overcast
8:56 PM 59.9 °F 54.9 °F 83% 30.12 in 10.0 mi NNE 9.2 mph - N/A   Overcast
9:35 PM 60.8 °F 53.6 °F 77% 30.12 in 10.0 mi NNE 10.4 mph - N/A   Overcast
9:56 PM 59.9 °F 52.9 °F 78% 30.14 in 10.0 mi NNE 11.5 mph - N/A   Overcast
10:08 PM 60.8 °F 53.6 °F 77% 30.14 in 10.0 mi NNE 11.5 mph - N/A   Overcast
10:56 PM 59.0 °F 52.9 °F 80% 30.15 in 10.0 mi NE 13.8 mph - N/A   Overcast
11:56 PM 57.9 °F 54.0 °F 87% 30.17 in 5.0 mi North 5.8 mph - 0.02 in Rain Light Rain